Tiempo atmosférico en la estación meteorológica de Banyalbufar, Illes Balears (60 m.)



Fecha
DESCASC
Temp. máxima en grados centígrados (hora)
DESCASC
Temp. mínima en grados centígrados (hora)
DESCASC
Temp. media en grados centígrados
DESCASC
Racha de viento máxima en m/sg (hora)
DESCASC
Velocidad máxima media en intervalos de 10 minutos(hora)
DESCASC
Precipitaciones diarias en mm
DESCASC
Precipitaciones de 00:00 a 06:00 en mm
DESCASC
Precipitaciones de 06:00 a 12:00 en mm
DESCASC
Precipitaciones de 12:00 a 18:00 en mm
DESCASC
Precipitaciones de 18:00 a 24:00 en mm
DESCASC
21-02-2019 15.6 (15:40) 7.8 (06:10) 11.7 5 (01:10) 3.61 (01:00) 0 0 0 0 0
20-02-2019 14.8 (14:30) 7.3 (06:30) 11.1 6.94 (00:10) 3.89 (00:10) 0 0 0 0 0
19-02-2019 14.2 (13:40) 8.1 (02:20) 11.2 6.11 (23:40) 3.89 (23:50) 0 0 0 0 0
18-02-2019 14.9 (15:10) 7.4 (06:50) 11.1 4.44 (06:30) 3.61 (04:10) 0 0 0 0 0
17-02-2019 14.3 (15:50) 7.7 (00:00) 11 5.56 (11:50) 3.61 (12:10) 0 0 0 0 0
16-02-2019 15.3 (15:50) 6.4 (00:00) 10.9 4.17 (05:30) 3.33 (08:40) 0 0 0 0 0
15-02-2019 14.4 (15:30) 6 (00:00) 10.2 5 (09:00) 3.61 (09:20) 0 0 0 0 0
14-02-2019 15.3 (16:10) 6.7 (00:00) 11 5.56 (06:20) 3.33 (06:00) 0 0 0 0 0
13-02-2019 14.8 (15:00) 6.8 (00:00) 10.8 5.28 (04:10) 3.89 (04:10) 0 0 0 0 0
12-02-2019 15.4 (16:40) 7.1 (00:00) 11.2 4.17 (13:40) 3.33 (20:30) 0 0 0 0 0
11-02-2019 16 (00:40) 8.4 (00:00) 12.2 8.89 (05:40) 5.83 (01:10) 0 0 0 0 0
10-02-2019 16.9 (09:40) 10 (00:00) 13.4 14.72 (12:40) 7.5 (12:50) 0 0 0 0 0
09-02-2019 14.9 (11:20) 9.2 (00:00) 12 4.17 (05:40) 3.33 (05:40) 0 0 0 0 0
08-02-2019 17.7 (15:30) 9.1 (00:00) 13.4 4.44 (18:30) 3.06 (01:30) 0 0 0 0 0
07-02-2019 16 (11:50) 9.1 (00:00) 12.6 4.72 (14:30) 2.78 (05:30) 0 0 0 0 0
06-02-2019 17.2 (15:40) 9.2 (00:00) 13.2 3.89 (20:40) 3.06 (02:30) 0 0 0 0 0
05-02-2019 16.9 (16:00) 6.3 (00:00) 11.6 5.83 (12:10) 3.33 (00:30) 0 0 0 0 0
04-02-2019 12.3 (15:40) 5.7 (00:00) 9 14.72 (00:20) 10.83 (00:20) 0 0 0 0 0
03-02-2019 11.1 (22:20) 6.3 (00:00) 8.7 16.11 (02:10) 11.11 (02:10) 0 0 0 0 0
02-02-2019 13.3 (00:00) 8.8 (00:00) 11.1 17.5 (23:20) 13.06 (22:10) 0.6 0 0.4 0.2 0
01-02-2019 17.8 (00:20) 13.3 (00:00) 15.5 18.89 (08:40) 7.78 (23:30) 0.8 0 0.8 0 0
31-01-2019 18 (15:40) 12.8 (00:00) 15.4 18.06 (14:30) 7.78 (13:00) 0 0 0 0 0
30-01-2019 13.4 (00:10) 9.8 (00:00) 11.6 18.33 (02:50) 10.28 (06:30) 0 0 0 0 0
29-01-2019 14 (22:30) 10.6 (00:00) 12.3 12.78 (22:50) 8.61 (00:10) 0 0 0 0 0
28-01-2019 13.9 (15:40) 10.5 (00:00) 12.2 16.94 (18:00) 12.5 (21:50) 0 0 0 0 0
27-01-2019 16.6 (12:20) 11.7 (00:00) 14.2 20 (19:40) 11.67 (22:00) 0 0 0 0 0
26-01-2019 14.9 (14:40) 9.6 (00:00) 12.3 11.11 (20:10) 4.72 (20:40) 0 0 0 0 0
25-01-2019 15.4 (15:30) 6.1 (00:00) 10.7 10 (20:40) 6.11 (19:20) 0 0 0 0 0
24-01-2019 11.6 (16:40) 8.8 (00:00) 10.2 21.39 (06:50) 16.39 (06:50) 0.8 0.8 0 0 0

Gráficas

Temp. máximas Temp. mínimas Temp. medias Precipitaciones Rachas de viento máximas Velocidades máximas media en intervalos de 10 minutos

Datos horarios

Fecha y hora oficial Temperatura (ºC) Velocidad del viento (km/h) Dirección del viento Racha (km/h) Dirección de racha Precipitación (mm) Presión (hPa) Tendencia (hPa) Humedad (%)
2019-02-22 23:00:00 11.2 6 Sur 13 Sudeste 0 -- -- 56
2019-02-22 22:00:00 11.6 5 Sur 11 Sur 0 -- -- 55
2019-02-22 21:00:00 11 7 Sur 11 Sur 0 -- -- 58
2019-02-22 20:00:00 10.9 7 Sur 11 Sur 0 -- -- 65
2019-02-22 19:00:00 10.9 4 Sur 13 Sur 0 -- -- 76
2019-02-22 18:00:00 12.9 8 Sur 18 Oeste 0 -- -- 75
2019-02-22 17:00:00 15 10 Oeste 19 Oeste 0 -- -- 77
2019-02-22 16:00:00 14.6 13 Oeste 22 Oeste 0 -- -- 76
2019-02-22 15:00:00 14.6 11 Oeste 22 Oeste 0 -- -- 83
2019-02-22 14:00:00 13.6 14 Oeste 30 Oeste 0 -- -- 84
2019-02-22 13:00:00 13.5 15 Oeste 23 Oeste 0 -- -- 84
2019-02-22 12:00:00 13.3 10 Oeste 16 Oeste 0 -- -- 83
2019-02-22 11:00:00 12.9 8 Oeste 16 Oeste 0 -- -- 83
2019-02-22 10:00:00 12.4 5 Sudoeste 13 Oeste 0 -- -- 84
2019-02-22 09:00:00 10 9 Sur 15 Sur 0 -- -- 88
2019-02-22 08:00:00 8.6 11 Sudoeste 17 Sur 0 -- -- 94
2019-02-22 07:00:00 8.4 11 Sur 15 Sur 0 -- -- 95
2019-02-22 06:00:00 9.3 11 Sur 14 Sur 0 -- -- 94
2019-02-22 05:00:00 10 10 Sudoeste 16 Sudoeste 0 -- -- 94
2019-02-22 04:00:00 9.6 12 Sudoeste 17 Sudoeste 0 -- -- 94
2019-02-22 03:00:00 9.3 12 Sur 18 Sudoeste 0 -- -- 94
2019-02-22 02:00:00 9.2 12 Sur 15 Sudoeste 0 -- -- 95
2019-02-22 01:00:00 9 11 Sur 13 Sur 0 -- -- 95
2019-02-22 00:00:00 8.9 11 Sur 14 Sur 0 -- -- 94
2019-02-21 23:00:00 8.2 10 Sur 14 Sur 0 -- -- 93
2019-02-21 22:00:00 8.1 10 Sur 13 Sur 0 -- -- 92
2019-02-21 21:00:00 8.6 10 Sur 14 Sur 0 -- -- 92
2019-02-21 20:00:00 9.2 10 Sur 12 Sur 0 -- -- 90
2019-02-21 19:00:00 9.9 10 Sur 12 Sur 0 -- -- 83
2019-02-21 18:00:00 13.2 8 Sur 9 Sur 0 -- -- 74
2019-02-21 17:00:00 14.9 2 Noroeste 6 Norte 0 -- -- 70
2019-02-21 16:00:00 15.1 3 Norte 5 Oeste 0 -- -- 69
2019-02-21 15:00:00 15.5 2 Norte 5 Noroeste 0 -- -- 70
2019-02-21 14:00:00 13.2 0 Calma 5 Norte 0 -- -- 72
2019-02-21 13:00:00 13.4 2 Noroeste 4 Norte 0 -- -- 71
2019-02-21 12:00:00 13.4 0 Calma 4 Noroeste 0 -- -- 73
2019-02-21 11:00:00 13.8 0 Calma 11 Sur 0 -- -- 80
2019-02-21 10:00:00 9.6 9 Sur 12 Sur 0 -- -- 85
2019-02-21 09:00:00 9.5 10 Sur 13 Sur 0 -- -- 89
2019-02-21 08:00:00 8.2 9 Sur 13 Sur 0 -- -- 90
2019-02-21 07:00:00 8.4 8 Sur 13 Sur 0 -- -- 91
2019-02-21 06:00:00 7.9 5 Sur 13 Sur 0 -- -- 90
2019-02-21 05:00:00 7.9 9 Sur 13 Sur 0 -- -- 89
2019-02-21 04:00:00 8.2 10 Sur 14 Sur 0 -- -- 87
2019-02-21 03:00:00 9.4 10 Sur 17 Sur 0 -- -- 83
2019-02-21 02:00:00 10.2 12 Sur 18 Sur 0 -- -- 81
2019-02-21 01:00:00 10.3 13 Sur 17 Sur 0 -- -- 81
2019-02-21 00:00:00 10.2 11 Sur 18 Sur 0 -- -- 87
2019-02-20 23:00:00 8.7 8 Sur 16 Sur 0 -- -- 86
2019-02-20 22:00:00 9.2 6 Sur 10 Sur 0 -- -- 84
2019-02-20 21:00:00 9.7 7 Sur 10 Sur 0 -- -- 84
2019-02-20 20:00:00 9.2 6 Sur 9 Sur 0 -- -- 83
2019-02-20 19:00:00 10.1 5 Sur 9 Sur 0 -- -- 80
2019-02-20 18:00:00 12.8 7 Sur 9 Sur 0 -- -- 73
2019-02-20 17:00:00 14 3 Norte 5 Norte 0 -- -- 69
2019-02-20 16:00:00 13.9 2 Noroeste 6 Norte 0 -- -- 68
2019-02-20 15:00:00 14.2 4 Norte 9 Norte 0 -- -- 65
2019-02-20 14:00:00 14.3 2 Norte 8 Nordeste 0 -- -- 63
2019-02-20 13:00:00 13.5 3 Nordeste 6 Norte 0 -- -- 69
2019-02-20 12:00:00 13.6 0 Calma 7 Oeste 0 -- -- 72
2019-02-20 11:00:00 13.1 0 Calma 9 Sur 0 -- -- 74
2019-02-20 10:00:00 10.1 5 Sur 11 Sur 0 -- -- 84
2019-02-20 09:00:00 8.5 7 Sur 14 Sur 0 -- -- 89
2019-02-20 08:00:00 7.5 7 Sur 13 Sudoeste 0 -- -- 91
2019-02-20 07:00:00 8.2 6 Sur 12 Sur 0 -- -- 91
2019-02-20 06:00:00 7.6 7 Sur 11 Sur 0 -- -- 90
2019-02-20 05:00:00 7.9 8 Sur 12 Sur 0 -- -- 89
2019-02-20 04:00:00 8 6 Sur 9 Sudeste 0 -- -- 87
2019-02-20 03:00:00 8.9 8 Sur 12 Sur 0 -- -- 85
2019-02-20 02:00:00 8.5 10 Sur 12 Sur 0 -- -- 83
2019-02-20 01:00:00 9.7 7 Sudeste 25 Sudeste 0 -- -- 78
2019-02-20 00:00:00 10.8 13 Sudeste 22 Sur 0 -- -- 78
2019-02-19 23:00:00 9.1 8 Sur 12 Sur 0 -- -- 86
2019-02-19 22:00:00 9.2 7 Sur 13 Sur 0 -- -- 84
2019-02-19 21:00:00 9.8 8 Sur 11 Sur 0 -- -- 85
2019-02-19 20:00:00 10.4 5 Sur 9 Sudeste 0 -- -- 86
2019-02-19 19:00:00 11.5 4 Sur 6 Sudeste 0 -- -- 83
2019-02-19 18:00:00 13.1 2 Norte 11 Norte 0 -- -- 80
2019-02-19 17:00:00 12.9 6 Norte 11 Norte 0 -- -- 81
2019-02-19 16:00:00 13.2 6 Norte 15 Norte 0 -- -- 77
2019-02-19 15:00:00 13.9 9 Norte 14 Norte 0 -- -- 75
2019-02-19 14:00:00 14.1 5 Noroeste 13 Sudoeste 0 -- -- 76
2019-02-19 13:00:00 14.1 10 Oeste 14 Oeste 0 -- -- 79
2019-02-19 12:00:00 13.7 6 Oeste 10 Oeste 0 -- -- 80
2019-02-19 11:00:00 13.5 4 Oeste 10 Sur 0 -- -- 81
2019-02-19 10:00:00 11.2 9 Sur 12 Sur 0 -- -- 89
2019-02-19 09:00:00 9.4 8 Sur 13 Sur 0 -- -- 95
2019-02-19 08:00:00 8.3 12 Sur 16 Sur 0 -- -- 96
2019-02-19 07:00:00 9 9 Sur 12 Sur 0 -- -- 95
2019-02-19 06:00:00 9.6 7 Sur 10 Sur 0 -- -- 92
2019-02-19 05:00:00 10.2 6 Sur 12 Sur 0 -- -- 92
2019-02-19 04:00:00 9.4 10 Sur 14 Sur 0 -- -- 89
2019-02-19 03:00:00 8.6 11 Sur 15 Sur 0 -- -- 85
2019-02-19 02:00:00 8.5 7 Sur 13 Sur 0 -- -- 82
2019-02-19 01:00:00 8.4 10 Sur 16 Sur 0 -- -- 79
2019-02-19 00:00:00 8.3 10 Sur 14 Sur 0 -- -- 90
2019-02-18 23:00:00 8.6 10 Sur 13 Sur 0 -- -- 93
2019-02-18 22:00:00 9 9 Sur 13 Sur 0 -- -- 93
2019-02-18 21:00:00 9.3 10 Sur 12 Sur 0 -- -- 92
2019-02-18 20:00:00 9.7 9 Sur 13 Sur 0 -- -- 88
2019-02-18 19:00:00 10.8 6 Sudeste 10 Sudeste 0 -- -- 83
2019-02-18 18:00:00 12.7 4 Sur 13 Norte 0 -- -- 76
2019-02-18 17:00:00 14.1 7 Norte 11 Norte 0 -- -- 77
2019-02-18 16:00:00 13.8 3 Norte 8 Norte 0 -- -- 79
2019-02-18 15:00:00 14.6 5 Norte 10 Norte 0 -- -- 79
2019-02-18 14:00:00 14.4 4 Norte 10 Norte 0 -- -- 81
2019-02-18 13:00:00 13.5 5 Norte 15 Oeste 0 -- -- 83
2019-02-18 12:00:00 13.5 5 Oeste 12 Sudoeste 0 -- -- 82
2019-02-18 11:00:00 13.6 0 Calma 9 Sur 0 -- -- 80
2019-02-18 10:00:00 10.2 9 Sur 14 Sur 0 -- -- 82
2019-02-18 09:00:00 8.5 11 Sur 14 Sur 0 -- -- 85
2019-02-18 08:00:00 7.6 10 Sur 15 Sudoeste 0 -- -- 83
2019-02-18 07:00:00 7.6 8 Sur 16 Sur 0 -- -- 88
2019-02-18 06:00:00 7.8 12 Sur 15 Sur 0 -- -- 88
2019-02-18 05:00:00 8 10 Sur 16 Sur 0 -- -- 83
2019-02-18 04:00:00 7.9 12 Sur 15 Sur 0 -- -- 84
2019-02-18 03:00:00 8.2 9 Sur 14 Sur 0 -- -- 85
2019-02-18 02:00:00 9 6 Sudeste 15 Sudoeste 0 -- -- 87
2019-02-18 01:00:00 8.4 10 Sur 13 Sur 0 -- -- 87
2019-02-18 00:00:00 8.4 12 Sur 14 Sur 0 -- -- 90
2019-02-17 23:00:00 8.5 10 Sur 14 Sur 0 -- -- 91
2019-02-17 22:00:00 8.4 10 Sur 14 Sur 0 -- -- 92
2019-02-17 21:00:00 8.7 10 Sur 13 Sur 0 -- -- 93
2019-02-17 20:00:00 9.4 9 Sur 12 Sur 0 -- -- 93
2019-02-17 19:00:00 10 8 Sur 11 Sur 0 -- -- 90
2019-02-17 18:00:00 11.9 7 Sur 10 Sur 0 -- -- 82
2019-02-17 17:00:00 13.5 5 Norte 15 Nordeste 0 -- -- 79
2019-02-17 16:00:00 14.2 9 Norte 16 Norte 0 -- -- 78
2019-02-17 15:00:00 14.2 8 Norte 15 Nordeste 0 -- -- 78
2019-02-17 14:00:00 13.9 10 Nordeste 16 Nordeste 0 -- -- 82
2019-02-17 13:00:00 13.6 10 Nordeste 19 Nordeste 0 -- -- 84
2019-02-17 12:00:00 13.3 12 Nordeste 20 Nordeste 0 -- -- 83
2019-02-17 11:00:00 12.6 3 Sur 15 Sur 0 -- -- 81
2019-02-17 10:00:00 10.4 10 Sur 14 Sur 0 -- -- 95
2019-02-17 09:00:00 8.6 10 Sur 13 Sur 0 -- -- 98
2019-02-17 08:00:00 8.1 10 Sur 14 Sur 0 -- -- 97
2019-02-17 07:00:00 7.7 10 Sur 14 Sur 0 -- -- 97
2019-02-17 06:00:00 8 12 Sur 14 Sur 0 -- -- 97
2019-02-17 05:00:00 8.6 10 Sur 13 Sur 0 -- -- 95
2019-02-17 04:00:00 8.9 8 Sur 13 Sur 0 -- -- 91
2019-02-17 03:00:00 8.6 8 Sur 14 Sur 0 -- -- 80
2019-02-17 02:00:00 8.3 9 Sur 13 Sur 0 -- -- 75
2019-02-17 01:00:00 8.6 8 Sur 14 Sur 0 -- -- 71
2019-02-17 00:00:00 8.6 7 Sur 12 Sur 0 -- -- 64
2019-02-16 23:00:00 8.7 7 Sur 13 Sur 0 -- -- 65
2019-02-16 22:00:00 9 7 Sur 12 Sur 0 -- -- 67
2019-02-16 21:00:00 9 7 Sur 13 Sur 0 -- -- 68
2019-02-16 20:00:00 9.1 10 Sur 13 Sur 0 -- -- 65
2019-02-16 19:00:00 9.6 10 Sur 14 Sur 0 -- -- 73
2019-02-16 18:00:00 11.8 6 Sur 12 Sur 0 -- -- 71
2019-02-16 17:00:00 15.2 3 Sur 8 Sur 0 -- -- 74
2019-02-16 16:00:00 15.2 3 Norte 9 Oeste 0 -- -- 75
2019-02-16 15:00:00 15.1 4 Noroeste 11 Oeste 0 -- -- 75
2019-02-16 14:00:00 14.3 5 Noroeste 10 Oeste 0 -- -- 77
2019-02-16 13:00:00 13.6 4 Oeste 10 Oeste 0 -- -- 77
2019-02-16 12:00:00 13.5 4 Oeste 9 Oeste 0 -- -- 77
2019-02-16 11:00:00 13.3 3 Sur 8 Sur 0 -- -- 72
2019-02-16 10:00:00 9.7 7 Sur 13 Sudoeste 0 -- -- 72
2019-02-16 09:00:00 7.4 9 Sur 14 Sur 0 -- -- 53
2019-02-16 08:00:00 7 11 Sur 14 Sur 0 -- -- 50
2019-02-16 07:00:00 6.5 9 Sur 14 Sur 0 -- -- 62
2019-02-16 06:00:00 6.7 9 Sur 15 Sur 0 -- -- 61
2019-02-16 05:00:00 6.8 10 Sur 14 Sur 0 -- -- 64
2019-02-16 04:00:00 7 8 Sur 12 Sur 0 -- -- 65
2019-02-16 03:00:00 7 9 Sur 14 Sur 0 -- -- 58
2019-02-16 02:00:00 7.1 10 Sur 13 Sur 0 -- -- 62
2019-02-16 01:00:00 7.3 10 Sur 14 Sur 0 -- -- 61
2019-02-16 00:00:00 7.3 10 Sur 14 Sur 0 -- -- 66
2019-02-15 23:00:00 7.4 10 Sur 14 Sur 0 -- -- 73
2019-02-15 22:00:00 7.9 8 Sur 13 Sur 0 -- -- 85
2019-02-15 21:00:00 8.1 9 Sur 13 Sur 0 -- -- 93
2019-02-15 20:00:00 9.1 8 Sur 13 Sur 0 -- -- 91
2019-02-15 19:00:00 9.4 7 Sur 12 Sur 0 -- -- 88
2019-02-15 18:00:00 10.8 8 Sur 12 Sur 0 -- -- 79
2019-02-15 17:00:00 14.1 3 Noroeste 7 Norte 0 -- -- 76
2019-02-15 16:00:00 14.4 3 Norte 6 Norte 0 -- -- 75
2019-02-15 15:00:00 13.5 5 Norte 11 Norte 0 -- -- 77
2019-02-15 14:00:00 12.9 6 Norte 10 Norte 0 -- -- 81
2019-02-15 13:00:00 12.5 4 Norte 12 Norte 0 -- -- 81
2019-02-15 12:00:00 12.5 4 Norte 9 Nordeste 0 -- -- 82
2019-02-15 11:00:00 11.8 3 Sur 11 Sur 0 -- -- 80
2019-02-15 10:00:00 8.6 9 Sur 17 Sur 0 -- -- 77
2019-02-15 09:00:00 6.7 11 Sur 18 Sur 0 -- -- 82
2019-02-15 08:00:00 6.4 10 Sur 16 Sur 0 -- -- 79
2019-02-15 07:00:00 6.4 11 Sur 17 Sur 0 -- -- 85
2019-02-15 06:00:00 7.4 9 Sudeste 13 Sur 0 -- -- 94
2019-02-15 05:00:00 7.4 7 Sudeste 10 Sudeste 0 -- -- 92
2019-02-15 04:00:00 7.5 7 Sur 14 Sur 0 -- -- 88
2019-02-15 03:00:00 6.5 10 Sur 14 Sur 0 -- -- 87
2019-02-15 02:00:00 6.5 9 Sur 13 Sur 0 -- -- 85
2019-02-15 01:00:00 6.8 9 Sur 15 Sur 0 -- -- 83
2019-02-15 00:00:00 7.1 10 Sur 14 Sur 0 -- -- 86
2019-02-14 23:00:00 7.1 10 Sur 15 Sur 0 -- -- 88
2019-02-14 22:00:00 7.4 10 Sur 14 Sur 0 -- -- 91
2019-02-14 21:00:00 7.8 9 Sur 14 Sur 0 -- -- 90
2019-02-14 20:00:00 8.2 10 Sur 13 Sur 0 -- -- 87
2019-02-14 19:00:00 8.7 8 Sur 12 Sur 0 -- -- 81
2019-02-14 18:00:00 10.6 9 Sur 12 Sur 0 -- -- 73
2019-02-14 17:00:00 14.6 3 Sudoeste 6 Sur 0 -- -- 61
2019-02-14 16:00:00 15 4 Sudoeste 7 Sur 0 -- -- 57
2019-02-14 15:00:00 14.7 3 Noroeste 6 Norte 0 -- -- 56
2019-02-14 14:00:00 13.8 3 Norte 9 Norte 0 -- -- 62
2019-02-14 13:00:00 12.7 6 Norte 10 Norte 0 -- -- 65
2019-02-14 12:00:00 13 3 Nordeste 13 Oeste 0 -- -- 56
2019-02-14 11:00:00 11.1 6 Sur 13 Sur 0 -- -- 59
2019-02-14 10:00:00 8.6 12 Sur 15 Sur 0 -- -- 58
2019-02-14 09:00:00 7.3 10 Sur 15 Sur 0 -- -- 57
2019-02-14 08:00:00 7.7 6 Sudeste 14 Sudeste 0 -- -- 55
2019-02-14 07:00:00 8 10 Sudeste 20 Sudeste 0 -- -- 52
2019-02-14 06:00:00 8.7 12 Sudeste 19 Sudeste 0 -- -- 54
2019-02-14 05:00:00 8.4 10 Sur 15 Sudeste 0 -- -- 49
2019-02-14 04:00:00 7.3 9 Sur 16 Sudeste 0 -- -- 65
2019-02-14 03:00:00 6.9 10 Sur 14 Sur 0 -- -- 67
2019-02-14 02:00:00 7.2 9 Sur 14 Sur 0 -- -- 63
2019-02-14 01:00:00 6.9 8 Sur 13 Sur 0 -- -- 71
2019-02-14 00:00:00 7.3 9 Sur 15 Sur 0 -- -- 74
2019-02-13 23:00:00 7.3 10 Sur 17 Sur 0 -- -- 75
2019-02-13 22:00:00 7.2 11 Sur 15 Sur 0 -- -- 76
2019-02-13 21:00:00 8.1 7 Sur 13 Sur 0 -- -- 82
2019-02-13 20:00:00 9.3 8 Sur 13 Sur 0 -- -- 82
2019-02-13 19:00:00 9.8 8 Sur 10 Sur 0 -- -- 80
2019-02-13 18:00:00 11.7 5 Sur 9 Sudeste 0 -- -- 72
2019-02-13 17:00:00 13.9 4 Nordeste 8 Nordeste 0 -- -- 67
2019-02-13 16:00:00 14.8 4 Norte 8 Norte 0 -- -- 66
2019-02-13 15:00:00 14.8 4 Norte 7 Noroeste 0 -- -- 66
2019-02-13 14:00:00 14.2 4 Noroeste 8 Oeste 0 -- -- 68
2019-02-13 13:00:00 13.7 3 Noroeste 11 Oeste 0 -- -- 71
2019-02-13 12:00:00 13.1 5 Oeste 11 Oeste 0 -- -- 72
2019-02-13 11:00:00 12.4 4 Sudoeste 12 Sur 0 -- -- 71
2019-02-13 10:00:00 9.6 11 Sur 17 Sur 0 -- -- 71
2019-02-13 09:00:00 7.4 12 Sur 17 Sur 0 -- -- 70
2019-02-13 08:00:00 7.7 11 Sur 18 Sur 0 -- -- 75
2019-02-13 07:00:00 7.5 13 Sur 17 Sudoeste 0 -- -- 69
2019-02-13 06:00:00 6.9 12 Sur 16 Sur 0 -- -- 62
2019-02-13 05:00:00 7.3 11 Sur 19 Sur 0 -- -- 58
2019-02-13 04:00:00 7.5 12 Sur 16 Sur 0 -- -- 51
2019-02-13 03:00:00 7.5 8 Sur 15 Sur 0 -- -- 47
2019-02-13 02:00:00 7 8 Sur 15 Sur 0 -- -- 50
2019-02-13 01:00:00 6.9 11 Sur 14 Sur 0 -- -- 59
2019-02-13 00:00:00 7.1 12 Sur 15 Sur 0 -- -- 69
2019-02-12 23:00:00 7.5 9 Sur 15 Sur 0 -- -- 73
2019-02-12 22:00:00 7.7 10 Sur 15 Sur 0 -- -- 72
2019-02-12 21:00:00 7.8 11 Sur 15 Sur 0 -- -- 68
2019-02-12 20:00:00 8.1 10 Sur 14 Sur 0 -- -- 72
2019-02-12 19:00:00 8.6 8 Sur 14 Sur 0 -- -- 73
2019-02-12 18:00:00 10.1 8 Sur 14 Sur 0 -- -- 67
2019-02-12 17:00:00 13.7 7 Sur 12 Sur 0 -- -- 56
2019-02-12 16:00:00 14.3 6 Norte 12 Norte 0 -- -- 53
2019-02-12 15:00:00 13.9 6 Norte 14 Norte 0 -- -- 72
2019-02-12 14:00:00 13.6 9 Norte 15 Norte 0 -- -- 75
2019-02-12 13:00:00 13.4 9 Nordeste 14 Nordeste 0 -- -- 76
2019-02-12 12:00:00 13 2 Oeste 8 Sur 0 -- -- 79
2019-02-12 11:00:00 12.5 6 Sudoeste 9 Sur 0 -- -- 83
2019-02-12 10:00:00 11.4 8 Sur 12 Sur 0 -- -- 91
2019-02-12 09:00:00 9.6 7 Sur 13 Sur 0 -- -- 93
2019-02-12 08:00:00 8.4 10 Sur 15 Sur 0 -- -- 93
2019-02-12 07:00:00 8.3 11 Sur 14 Sudoeste 0 -- -- 93
2019-02-12 06:00:00 8.1 10 Sur 14 Sur 0 -- -- 92
2019-02-12 05:00:00 8.2 10 Sur 14 Sur 0 -- -- 90
2019-02-12 04:00:00 8.3 11 Sur 13 Sur 0 -- -- 89
2019-02-12 03:00:00 8.1 9 Sur 13 Sur 0 -- -- 89
2019-02-12 02:00:00 8 10 Sur 13 Sur 0 -- -- 87
2019-02-12 01:00:00 8.2 10 Sur 13 Sur 0 -- -- 86
2019-02-12 00:00:00 8.6 5 Sur 12 Sur 0 -- -- 86
2019-02-11 23:00:00 8.7 10 Sur 12 Sur 0 -- -- 86
2019-02-11 22:00:00 8.9 6 Sur 10 Sur 0 -- -- 88
2019-02-11 21:00:00 9 5 Sur 13 Sur 0 -- -- 85
2019-02-11 20:00:00 9 7 Sur 12 Sur 0 -- -- 81
2019-02-11 19:00:00 9.5 8 Sur 12 Sur 0 -- -- 78
2019-02-11 18:00:00 12.3 3 Sudoeste 10 Oeste 0 -- -- 68
2019-02-11 17:00:00 13.2 4 Noroeste 10 Oeste 0 -- -- 65
2019-02-11 16:00:00 13.1 5 Norte 15 Oeste 0 -- -- 64
2019-02-11 15:00:00 13.2 8 Oeste 17 Sudoeste 0 -- -- 64
2019-02-11 14:00:00 12.7 8 Oeste 17 Oeste 0 -- -- 64
2019-02-11 13:00:00 12.7 8 Oeste 18 Oeste 0 -- -- 64
2019-02-11 12:00:00 12.6 7 Noroeste 15 Noroeste 0 -- -- 63
2019-02-11 11:00:00 12.4 4 Sudoeste 10 Noroeste 0 -- -- 63
2019-02-11 10:00:00 12.1 8 Norte 18 Norte 0 -- -- 67
2019-02-11 09:00:00 12.1 6 Norte 26 Norte 0 -- -- 70
2019-02-11 08:00:00 12.6 19 Norte 30 Norte 0 -- -- 68
2019-02-11 07:00:00 12.6 8 Norte 29 Nordeste 0 -- -- 70
2019-02-11 06:00:00 12.9 16 Nordeste 32 Nordeste 0 -- -- 74
2019-02-11 05:00:00 13.5 6 Este 20 Nordeste 0 -- -- 75
2019-02-11 04:00:00 13.3 3 Sur 12 Norte 0 -- -- 74
2019-02-11 03:00:00 14 5 Oeste 16 Sudoeste 0 -- -- 73
2019-02-11 02:00:00 14.2 8 Sur 30 Sudoeste 0 -- -- 71
2019-02-11 01:00:00 15.1 13 Sudoeste 25 Sudoeste 0 -- -- 68
2019-02-11 00:00:00 15.7 8 Sudoeste 30 Sur 0 -- -- 55
2019-02-10 23:00:00 15.4 18 Sudoeste 30 Sudoeste 0 -- -- 58
2019-02-10 22:00:00 15 14 Sudoeste 35 Sudoeste 0 -- -- 62
2019-02-10 21:00:00 14.9 21 Sudoeste 39 Sudoeste 0 -- -- 63
2019-02-10 20:00:00 14.4 19 Sudoeste 40 Sudoeste 0 -- -- 65
2019-02-10 19:00:00 13.8 19 Sudoeste 36 Sudoeste 0 -- -- 72
2019-02-10 18:00:00 14.2 18 Sudoeste 35 Sur 0 -- -- 69
2019-02-10 17:00:00 14.6 16 Sudoeste 34 Sur 0 -- -- 67
2019-02-10 16:00:00 14.3 13 Sudoeste 37 Sudoeste 0 -- -- 70
2019-02-10 15:00:00 15 25 Oeste 45 Sudoeste 0 -- -- 68
2019-02-10 14:00:00 15.1 21 Sudoeste 50 Sudoeste 0 -- -- 63
2019-02-10 13:00:00 15.5 25 Sudoeste 53 Noroeste 0 -- -- 63
2019-02-10 12:00:00 15.8 23 Sudoeste 51 Oeste 0 -- -- 59
2019-02-10 11:00:00 16.8 14 Sudoeste 41 Oeste 0 -- -- 55
2019-02-10 10:00:00 16.4 10 Oeste 27 Sudoeste 0 -- -- 52
2019-02-10 09:00:00 15.3 13 Sudoeste 26 Sudoeste 0 -- -- 57
2019-02-10 08:00:00 15.6 6 Sudoeste 24 Sudoeste 0 -- -- 48
2019-02-10 07:00:00 15.3 10 Sudoeste 18 Sudoeste 0 -- -- 46
2019-02-10 06:00:00 14 7 Sudoeste 13 Sudoeste 0 -- -- 51
2019-02-10 05:00:00 11.8 4 Sur 12 Sur 0 -- -- 66
2019-02-10 04:00:00 10.6 5 Sudeste 12 Sur 0 -- -- 73
2019-02-10 03:00:00 10.5 7 Sur 13 Sur 0 -- -- 71
2019-02-10 02:00:00 10.4 9 Sur 14 Sur 0 -- -- 73
2019-02-10 01:00:00 10.3 9 Sur 14 Sur 0 -- -- 72
2019-02-10 00:00:00 10.6 6 Sur 11 Sur 0 -- -- 72
2019-02-09 23:00:00 10.5 5 Sudeste 11 Sur 0 -- -- 74
2019-02-09 22:00:00 10.6 5 Sur 10 Sur 0 -- -- 76
2019-02-09 21:00:00 9.3 5 Sur 9 Sur 0 -- -- 91
2019-02-09 20:00:00 9.4 5 Sur 11 Sur 0 -- -- 98
2019-02-09 19:00:00 9.7 4 Sur 8 Sudoeste 0 -- -- 99
2019-02-09 18:00:00 12 4 Sudoeste 7 Oeste 0 -- -- 99
2019-02-09 17:00:00 12.3 5 Noroeste 11 Oeste 0 -- -- 99
2019-02-09 16:00:00 12.6 6 Oeste 10 Oeste 0 -- -- 97
2019-02-09 15:00:00 12.8 6 Oeste 12 Oeste 0 -- -- 97
2019-02-09 14:00:00 12.4 6 Norte 13 Noroeste 0 -- -- 97
2019-02-09 13:00:00 13.5 5 Noroeste 11 Noroeste 0 -- -- 92
2019-02-09 12:00:00 14.3 4 Oeste 10 Noroeste 0 -- -- 87
2019-02-09 11:00:00 14.7 2 Sur 8 Sur 0 -- -- 81
2019-02-09 10:00:00 12.3 7 Sur 10 Sur 0 -- -- 85
2019-02-09 09:00:00 10.8 8 Sur 12 Sur 0 -- -- 82
2019-02-09 08:00:00 10 10 Sur 13 Sur 0 -- -- 80
2019-02-09 07:00:00 10.3 10 Sur 14 Sur 0 -- -- 78
2019-02-09 06:00:00 10.4 11 Sur 15 Sur 0 -- -- 76
2019-02-09 05:00:00 10.5 8 Sur 14 Sur 0 -- -- 72
2019-02-09 04:00:00 11.6 6 Sur 12 Sur 0 -- -- 69
2019-02-09 03:00:00 11.5 8 Sur 12 Sur 0 -- -- 67
2019-02-09 02:00:00 12.4 4 Sur 11 Sur 0 -- -- 62
2019-02-09 01:00:00 12.5 4 Sur 10 Sur 0 -- -- 61
2019-02-09 00:00:00 11.2 6 Sur 11 Sur 0 -- -- 67
2019-02-08 23:00:00 10.9 8 Sur 12 Sur 0 -- -- 68
2019-02-08 22:00:00 10.8 8 Sur 13 Sur 0 -- -- 71
2019-02-08 21:00:00 11.2 5 Sur 12 Sur 0 -- -- 73
2019-02-08 20:00:00 11.2 5 Sur 12 Sur 0 -- -- 76
2019-02-08 19:00:00 11.7 5 Sur 16 Sur 0 -- -- 78
2019-02-08 18:00:00 12.6 6 Sur 14 Sur 0 -- -- 76
2019-02-08 17:00:00 16.6 4 Este 10 Norte 0 -- -- 61
2019-02-08 16:00:00 17 5 Norte 10 Norte 0 -- -- 63
2019-02-08 15:00:00 16.7 4 Norte 10 Norte 0 -- -- 66
2019-02-08 14:00:00 15.6 5 Norte 10 Norte 0 -- -- 71
2019-02-08 13:00:00 14.8 3 Nordeste 6 Nordeste 0 -- -- 72
2019-02-08 12:00:00 14.9 0 Calma 5 Nordeste 0 -- -- 74
2019-02-08 11:00:00 13.8 2 Este 8 Sur 0 -- -- 80
2019-02-08 10:00:00 11.7 5 Sur 12 Sur 0 -- -- 90
2019-02-08 09:00:00 9.6 6 Sur 12 Sur 0 -- -- 96
2019-02-08 08:00:00 9.1 6 Sur 15 Sur 0 -- -- 96
2019-02-08 07:00:00 9.3 9 Sur 13 Sur 0 -- -- 96
2019-02-08 06:00:00 10.3 7 Sur 12 Sur 0 -- -- 94
2019-02-08 05:00:00 9.4 9 Sur 13 Sur 0 -- -- 90
2019-02-08 04:00:00 9.3 10 Sur 14 Sur 0 -- -- 86
2019-02-08 03:00:00 10.2 5 Sudeste 15 Sur 0 -- -- 87
2019-02-08 02:00:00 9.4 8 Sur 14 Sur 0 -- -- 88
2019-02-08 01:00:00 9.8 8 Sur 14 Sur 0 -- -- 91
2019-02-08 00:00:00 9.6 8 Sur 13 Sur 0 -- -- 93
2019-02-07 23:00:00 9.4 9 Sur 14 Sur 0 -- -- 93
2019-02-07 22:00:00 10.4 6 Sur 11 Sudeste 0 -- -- 93
2019-02-07 21:00:00 10.1 6 Sur 11 Nordeste 0 -- -- 92
2019-02-07 20:00:00 11 3 Sudeste 13 Sudeste 0 -- -- 94
2019-02-07 19:00:00 12.4 3 Este 10 Nordeste 0 -- -- 94
2019-02-07 18:00:00 13.3 8 Nordeste 15 Nordeste 0 -- -- 92
2019-02-07 17:00:00 14.2 10 Nordeste 17 Nordeste 0 -- -- 89
2019-02-07 16:00:00 14.5 9 Nordeste 17 Norte 0 -- -- 85
2019-02-07 15:00:00 15.4 6 Norte 17 Nordeste 0 -- -- 78
2019-02-07 14:00:00 15.1 7 Nordeste 14 Nordeste 0 -- -- 76
2019-02-07 13:00:00 15 6 Norte 10 Nordeste 0 -- -- 73
2019-02-07 12:00:00 15.9 2 Nordeste 4 Nordeste 0 -- -- 64
2019-02-07 11:00:00 14.8 0 Calma 7 Sur 0 -- -- 73
2019-02-07 10:00:00 13.5 4 Sur 10 Sur 0 -- -- 76
2019-02-07 09:00:00 10.7 7 Sur 13 Sur 0 -- -- 79
2019-02-07 08:00:00 10 6 Sur 12 Sur 0 -- -- 79
2019-02-07 07:00:00 10.1 6 Sur 12 Sur 0 -- -- 77
2019-02-07 06:00:00 10.8 7 Sur 14 Sur 0 -- -- 74
2019-02-07 05:00:00 11.1 7 Sudeste 11 Sur 0 -- -- 73
2019-02-07 04:00:00 11.4 6 Sur 14 Sur 0 -- -- 72
2019-02-07 03:00:00 11.3 9 Sur 13 Sur 0 -- -- 72
2019-02-07 02:00:00 11.6 5 Sur 11 Sur 0 -- -- 72
2019-02-07 01:00:00 11.9 4 Sudeste 10 Sur 0 -- -- 71
2019-02-07 00:00:00 12.4 5 Sur 12 Sur 0 -- -- 72
2019-02-06 23:00:00 10.9 5 Sur 12 Sur 0 -- -- 76
2019-02-06 22:00:00 11 7 Sur 11 Sur 0 -- -- 78
2019-02-06 21:00:00 11.4 6 Sur 14 Sur 0 -- -- 78
2019-02-06 20:00:00 11.1 9 Sur 13 Sur 0 -- -- 81
2019-02-06 19:00:00 11 7 Sur 10 Sur 0 -- -- 81
2019-02-06 18:00:00 12.3 4 Sur 10 Sur 0 -- -- 77
2019-02-06 17:00:00 16.2 5 Sur 8 Sur 0 -- -- 63
2019-02-06 16:00:00 16.3 4 Oeste 6 Oeste 0 -- -- 63
2019-02-06 15:00:00 16.9 2 Noroeste 12 Sudoeste 0 -- -- 56
2019-02-06 14:00:00 15.6 6 Noroeste 12 Oeste 0 -- -- 56
2019-02-06 13:00:00 15.9 0 Calma 5 Noroeste 0 -- -- 59
2019-02-06 12:00:00 14.7 0 Calma 5 Sur 0 -- -- 65
2019-02-06 11:00:00 13.2 2 Sur 9 Sur 0 -- -- 77
2019-02-06 10:00:00 11.6 6 Sur 12 Sur 0 -- -- 78
2019-02-06 09:00:00 9.6 8 Sur 11 Sur 0 -- -- 82
2019-02-06 08:00:00 9.7 6 Sudeste 12 Sur 0 -- -- 83
2019-02-06 07:00:00 9.7 9 Sur 13 Sur 0 -- -- 83
2019-02-06 06:00:00 9.7 10 Sur 14 Sur 0 -- -- 82
2019-02-06 05:00:00 9.3 9 Sur 13 Sur 0 -- -- 84
2019-02-06 04:00:00 9.4 8 Sur 13 Sur 0 -- -- 84
2019-02-06 03:00:00 9.3 9 Sur 13 Sur 0 -- -- 84
2019-02-06 02:00:00 9.4 10 Sur 12 Sur 0 -- -- 83
2019-02-06 01:00:00 9.5 10 Sur 13 Sur 0 -- -- 81
2019-02-06 00:00:00 9.4 10 Sur 13 Sur 0 -- -- 80
2019-02-05 23:00:00 9.5 9 Sur 13 Sur 0 -- -- 79
2019-02-05 22:00:00 9.8 8 Sur 10 Sur 0 -- -- 77
2019-02-05 21:00:00 10.5 7 Sur 13 Sur 0 -- -- 76
2019-02-05 20:00:00 10.3 7 Sur 14 Sur 0 -- -- 74
2019-02-05 19:00:00 10.6 9 Sur 13 Sur 0 -- -- 74
2019-02-05 18:00:00 12.5 8 Sur 12 Sur 0 -- -- 68
2019-02-05 17:00:00 15.4 2 Sudeste 8 Sur 0 -- -- 57
2019-02-05 16:00:00 16.9 2 Sudoeste 9 Oeste 0 -- -- 54
2019-02-05 15:00:00 15.4 6 Oeste 9 Oeste 0 -- -- 53
2019-02-05 14:00:00 14.1 6 Oeste 15 Sudoeste 0 -- -- 54
2019-02-05 13:00:00 13.9 8 Oeste 21 Sudoeste 0 -- -- 53
2019-02-05 12:00:00 14 9 Sudoeste 17 Sur 0 -- -- 44
2019-02-05 11:00:00 13.6 6 Oeste 11 Oeste 0 -- -- 55
2019-02-05 10:00:00 11.3 4 Sur 14 Sur 0 -- -- 58
2019-02-05 09:00:00 8.7 10 Sur 13 Sur 0 -- -- 66
2019-02-05 08:00:00 6.9 9 Sur 14 Sur 0 -- -- 65
2019-02-05 07:00:00 6.8 12 Sur 14 Sur 0 -- -- 70
2019-02-05 06:00:00 7.1 8 Sur 13 Sur 0 -- -- 65
2019-02-05 05:00:00 6.3 11 Sur 14 Sur 0 -- -- 72
2019-02-05 04:00:00 6.6 10 Sur 15 Sur 0 -- -- 70
2019-02-05 03:00:00 7 12 Sur 16 Sur 0 -- -- 76
2019-02-05 02:00:00 6.9 10 Sur 15 Sudoeste 0 -- -- 76
2019-02-05 01:00:00 6.7 12 Sur 15 Sur 0 -- -- 75
2019-02-05 00:00:00 6.9 11 Sur 15 Sudoeste 0 -- -- 75
2019-02-04 23:00:00 6.2 11 Sur 14 Sur 0 -- -- 68
2019-02-04 22:00:00 5.8 10 Sur 14 Sur 0 -- -- 65
2019-02-04 21:00:00 6.1 11 Sur 15 Sur 0 -- -- 77
2019-02-04 20:00:00 5.7 13 Sur 15 Sur 0 -- -- 76
2019-02-04 19:00:00 6.1 12 Sur 15 Sur 0 -- -- 76
2019-02-04 18:00:00 7.7 9 Sur 12 Sur 0 -- -- 73
2019-02-04 17:00:00 11.3 7 Sur 14 Oeste 0 -- -- 59
2019-02-04 16:00:00 11.9 5 Noroeste 12 Noroeste 0 -- -- 56
2019-02-04 15:00:00 11.4 6 Noroeste 12 Noroeste 0 -- -- 55
2019-02-04 14:00:00 11.6 4 Noroeste 17 Noroeste 0 -- -- 56
2019-02-04 13:00:00 10.9 8 Noroeste 21 Noroeste 0 -- -- 57
2019-02-04 12:00:00 10.5 8 Noroeste 18 Oeste 0 -- -- 59
2019-02-04 11:00:00 10.4 6 Noroeste 17 Oeste 0 -- -- 62
2019-02-04 10:00:00 9.6 8 Sudoeste 16 Sudoeste 0 -- -- 63
2019-02-04 09:00:00 6.6 11 Sur 14 Sur 0 -- -- 67
2019-02-04 08:00:00 7.3 9 Sur 18 Norte 0 -- -- 65
2019-02-04 07:00:00 9.6 12 Norte 28 Norte 0 -- -- 61
2019-02-04 06:00:00 9.6 19 Norte 31 Norte 0 -- -- 63
2019-02-04 05:00:00 9.6 11 Norte 30 Noroeste 0 -- -- 55
2019-02-04 04:00:00 9.8 18 Norte 36 Noroeste 0 -- -- 61
2019-02-04 03:00:00 9.7 21 Norte 33 Norte 0 -- -- 59
2019-02-04 02:00:00 10.1 25 Norte 42 Noroeste 0 -- -- 53
2019-02-04 01:00:00 10.2 29 Norte 53 Noroeste 0 -- -- 55
2019-02-04 00:00:00 10.8 34 Norte 55 Noroeste 0 -- -- 54
2019-02-03 23:00:00 11 33 Norte 47 Norte 0 -- -- 55
2019-02-03 22:00:00 11 27 Norte 37 Norte 0 -- -- 47
2019-02-03 21:00:00 9.1 8 Oeste 22 Noroeste 0 -- -- 51
2019-02-03 20:00:00 7.8 13 Sudoeste 20 Sudoeste 0 -- -- 47
2019-02-03 19:00:00 6.7 11 Sur 16 Sudoeste 0 -- -- 49
2019-02-03 18:00:00 7.1 10 Sur 18 Noroeste 0 -- -- 55
2019-02-03 17:00:00 10.7 13 Norte 25 Noroeste 0 -- -- 45
2019-02-03 16:00:00 10.7 16 Norte 27 Norte 0 -- -- 48
2019-02-03 15:00:00 10.9 16 Norte 27 Noroeste 0 -- -- 47
2019-02-03 14:00:00 10.3 17 Norte 28 Noroeste 0 -- -- 50
2019-02-03 13:00:00 10.1 18 Norte 27 Noroeste 0 -- -- 49
2019-02-03 12:00:00 10 17 Norte 35 Norte 0 -- -- 49
2019-02-03 11:00:00 9.3 19 Norte 32 Noroeste 0 -- -- 50
2019-02-03 10:00:00 9.3 21 Norte 43 Noroeste 0 -- -- 49
2019-02-03 09:00:00 9.1 24 Norte 44 Norte 0 -- -- 51
2019-02-03 08:00:00 8.9 27 Norte 44 Norte 0 -- -- 58
2019-02-03 07:00:00 9 28 Norte 43 Norte 0 -- -- 59
2019-02-03 06:00:00 8.8 23 Noroeste 44 Noroeste 0 -- -- 63
2019-02-03 05:00:00 8.7 27 Norte 46 Noroeste 0 -- -- 68
2019-02-03 04:00:00 8.7 33 Norte 49 Noroeste 0 -- -- 68
2019-02-03 03:00:00 8.7 33 Norte 58 Noroeste 0 -- -- 69
2019-02-03 02:00:00 9.1 37 Norte 55 Norte 0 -- -- 67
2019-02-03 01:00:00 9.3 37 Norte 51 Noroeste 0 -- -- 64
2019-02-03 00:00:00 9.7 39 Norte 63 Noroeste 0 -- -- 68
2019-02-02 23:00:00 9.8 44 Norte 62 Noroeste 0 -- -- 66
2019-02-02 22:00:00 10.4 43 Norte 58 Norte 0 -- -- 62
2019-02-02 21:00:00 10.6 31 Norte 54 Norte 0 -- -- 67
2019-02-02 20:00:00 10.7 38 Norte 60 Noroeste 0 -- -- 67
2019-02-02 19:00:00 10.8 33 Norte 57 Norte 0 -- -- 64
2019-02-02 18:00:00 11.1 35 Norte 59 Norte 0 -- -- 68
2019-02-02 17:00:00 11.2 39 Norte 56 Norte 0 -- -- 66
2019-02-02 16:00:00 11.2 39 Norte 61 Norte 0 -- -- 64
2019-02-02 15:00:00 10.6 31 Noroeste 62 Norte 0 -- -- 70
2019-02-02 14:00:00 10.8 25 Norte 59 Norte 0.2 -- -- 67
2019-02-02 13:00:00 11.2 27 Norte 48 Noroeste 0 -- -- 67
2019-02-02 12:00:00 11.6 17 Noroeste 42 Norte 0 -- -- 66
2019-02-02 11:00:00 11.3 14 Noroeste 60 Noroeste 0 -- -- 64
2019-02-02 10:00:00 11 43 Norte 59 Norte 0 -- -- 67
2019-02-02 09:00:00 10.2 19 Sudoeste 39 Oeste 0 -- -- 68
2019-02-02 08:00:00 9.4 22 Noroeste 55 Noroeste 0.4 -- -- 72
2019-02-02 07:00:00 11.9 17 Oeste 45 Oeste 0 -- -- 66
2019-02-02 06:00:00 11.8 13 Oeste 46 Oeste 0 -- -- 65
2019-02-02 05:00:00 12 16 Oeste 51 Sudoeste 0 -- -- 67
2019-02-02 04:00:00 12 15 Oeste 50 Sudoeste 0 -- -- 65
2019-02-02 03:00:00 11.9 19 Oeste 50 Oeste 0 -- -- 62
2019-02-02 02:00:00 12.2 20 Oeste 51 Oeste 0 -- -- 64
2019-02-02 01:00:00 12.5 26 Sudoeste 62 Oeste 0 -- -- 60
2019-02-02 00:00:00 13.3 27 Sudoeste 58 Sudoeste 0 -- -- 61
2019-02-01 23:00:00 14.3 24 Sudoeste 52 Sudoeste 0 -- -- 54
2019-02-01 22:00:00 15.1 28 Sudoeste 54 Sudoeste 0 -- -- 43
2019-02-01 21:00:00 14.7 21 Sudoeste 55 Oeste 0 -- -- 44
2019-02-01 20:00:00 14.5 20 Sudoeste 55 Sudoeste 0 -- -- 46
2019-02-01 19:00:00 14.6 19 Sudoeste 62 Oeste 0 -- -- 45
2019-02-01 18:00:00 14.8 18 Sudoeste 57 Sudoeste 0 -- -- 49
2019-02-01 17:00:00 15.9 26 Sudoeste 54 Oeste 0 -- -- 52
2019-02-01 16:00:00 15.7 21 Sudoeste 55 Sudoeste 0 -- -- 63
2019-02-01 15:00:00 16.5 16 Sudoeste 52 Oeste 0 -- -- 57
2019-02-01 14:00:00 16.4 25 Oeste 50 Oeste 0 -- -- 66
2019-02-01 13:00:00 16.5 25 Sudoeste 66 Sudoeste 0 -- -- 65
2019-02-01 12:00:00 16.2 20 Sudoeste 66 Sur 0.4 -- -- 74
2019-02-01 11:00:00 16.6 19 Sudoeste 67 Sudoeste 0 -- -- 68
2019-02-01 10:00:00 15.9 20 Sudoeste 59 Oeste 0.2 -- -- 74
2019-02-01 09:00:00 15.8 22 Sudoeste 68 Sudoeste 0.2 -- -- 71
2019-02-01 08:00:00 16.4 26 Sudoeste 55 Sudoeste 0 -- -- 66
2019-02-01 07:00:00 17.1 19 Sudoeste 61 Sudoeste 0 -- -- 59
2019-02-01 06:00:00 17 18 Sudoeste 53 Sudoeste 0 -- -- 58
2019-02-01 05:00:00 16.8 18 Sudoeste 45 Sudoeste 0 -- -- 60
2019-02-01 04:00:00 17.3 17 Sudoeste 50 Sudoeste 0 -- -- 55
2019-02-01 03:00:00 17.5 17 Sudoeste 55 Sudoeste 0 -- -- 52
2019-02-01 02:00:00 17.7 20 Sudoeste 65 Oeste 0 -- -- 53
2019-02-01 01:00:00 17.7 19 Sudoeste 59 Oeste 0 -- -- 54
2019-02-01 00:00:00 17.7 26 Sudoeste 53 Oeste 0 -- -- 55
2019-01-31 23:00:00 17.4 21 Sudoeste 55 Oeste 0 -- -- 56
2019-01-31 22:00:00 17.6 22 Sudoeste 60 Sudoeste 0 -- -- 55
2019-01-31 21:00:00 17.1 18 Sudoeste 57 Sudoeste 0 -- -- 58
2019-01-31 20:00:00 17.1 20 Sudoeste 57 Oeste 0 -- -- 59
2019-01-31 19:00:00 17.1 20 Sudoeste 49 Oeste 0 -- -- 58
2019-01-31 18:00:00 17.5 21 Sudoeste 63 Oeste 0 -- -- 55
2019-01-31 17:00:00 17.9 26 Sudoeste 53 Sudoeste 0 -- -- 55
2019-01-31 16:00:00 17.8 22 Sudoeste 55 Oeste 0 -- -- 57
2019-01-31 15:00:00 17.7 19 Sudoeste 65 Sudoeste 0 -- -- 61
2019-01-31 14:00:00 17.6 24 Sudoeste 60 Sudoeste 0 -- -- 61
2019-01-31 13:00:00 17 28 Sudoeste 59 Noroeste 0 -- -- 62
2019-01-31 12:00:00 16.4 24 Sudoeste 60 Oeste 0 -- -- 64
2019-01-31 11:00:00 16 20 Sudoeste 50 Oeste 0 -- -- 64
2019-01-31 10:00:00 15.5 21 Sudoeste 53 Sudoeste 0 -- -- 63
2019-01-31 09:00:00 14.7 16 Sudoeste 51 Oeste 0 -- -- 63
2019-01-31 08:00:00 14.5 23 Sudoeste 52 Oeste 0 -- -- 62
2019-01-31 07:00:00 14 20 Sudoeste 52 Oeste 0 -- -- 61
2019-01-31 06:00:00 13.4 15 Sudoeste 43 Oeste 0 -- -- 65
2019-01-31 05:00:00 13.1 21 Sudoeste 43 Oeste 0 -- -- 66
2019-01-31 04:00:00 13 26 Sudoeste 52 Oeste 0 -- -- 68
2019-01-31 03:00:00 13.2 20 Sudoeste 45 Oeste 0 -- -- 66
2019-01-31 02:00:00 13.4 20 Sudoeste 48 Oeste 0 -- -- 54
2019-01-31 01:00:00 13.2 13 Sudoeste 45 Sur 0 -- -- 54
2019-01-31 00:00:00 13.1 15 Sur 42 Sur 0 -- -- 51
2019-01-30 23:00:00 12.8 15 Sudoeste 35 Sur 0 -- -- 50
2019-01-30 22:00:00 12.1 15 Sur 32 Sudoeste 0 -- -- 51
2019-01-30 21:00:00 11.6 12 Sudoeste 27 Sudoeste 0 -- -- 44
2019-01-30 20:00:00 9.8 9 Sur 17 Sudoeste 0 -- -- 49
2019-01-30 19:00:00 11.1 9 Sudoeste 19 Sudoeste 0 -- -- 55
2019-01-30 18:00:00 10.9 7 Sur 21 Oeste 0 -- -- 55
2019-01-30 17:00:00 12.9 7 Oeste 20 Oeste 0 -- -- 49
2019-01-30 16:00:00 13.3 9 Noroeste 34 Noroeste 0 -- -- 51
2019-01-30 15:00:00 13 10 Oeste 22 Noroeste 0 -- -- 59
2019-01-30 14:00:00 12.5 15 Norte 41 Norte 0 -- -- 58
2019-01-30 13:00:00 12.2 27 Norte 44 Norte 0 -- -- 58
2019-01-30 12:00:00 12.3 31 Norte 48 Noroeste 0 -- -- 55
2019-01-30 11:00:00 11.6 25 Norte 55 Norte 0 -- -- 61
2019-01-30 10:00:00 11.6 31 Norte 55 Noroeste 0 -- -- 62
2019-01-30 09:00:00 11.3 28 Noroeste 49 Noroeste 0 -- -- 67
2019-01-30 08:00:00 11.2 31 Norte 53 Noroeste 0 -- -- 65
2019-01-30 07:00:00 11.4 31 Norte 50 Norte 0 -- -- 63
2019-01-30 06:00:00 11.3 23 Norte 55 Norte 0 -- -- 66
2019-01-30 05:00:00 11.6 27 Norte 55 Noroeste 0 -- -- 63
2019-01-30 04:00:00 11.8 26 Noroeste 57 Oeste 0 -- -- 64
2019-01-30 03:00:00 12.2 31 Noroeste 66 Noroeste 0 -- -- 61
2019-01-30 02:00:00 12.3 27 Noroeste 52 Noroeste 0 -- -- 65
2019-01-30 01:00:00 12.6 25 Noroeste 51 Noroeste 0 -- -- 62
2019-01-30 00:00:00 13.2 17 Noroeste 37 Noroeste 0 -- -- 66
2019-01-29 23:00:00 12.2 30 Norte 46 Norte 0 -- -- 80
2019-01-29 22:00:00 13.8 14 Sudoeste 32 Sudoeste 0 -- -- 74
2019-01-29 21:00:00 13.6 12 Sudoeste 33 Sudoeste 0 -- -- 70
2019-01-29 20:00:00 13 12 Sudoeste 35 Oeste 0 -- -- 71
2019-01-29 19:00:00 12.1 8 Sudoeste 26 Oeste 0 -- -- 65
2019-01-29 18:00:00 11.9 10 Sudoeste 30 Sudoeste 0 -- -- 69
2019-01-29 17:00:00 12 9 Sudoeste 20 Oeste 0 -- -- 72
2019-01-29 16:00:00 11.6 7 Oeste 18 Sudoeste 0 -- -- 72
2019-01-29 15:00:00 11.7 5 Oeste 21 Noroeste 0 -- -- 70
2019-01-29 14:00:00 11.8 10 Noroeste 24 Noroeste 0 -- -- 69
2019-01-29 13:00:00 12.2 12 Noroeste 31 Noroeste 0 -- -- 63
2019-01-29 12:00:00 11.9 15 Noroeste 31 Norte 0 -- -- 63
2019-01-29 11:00:00 11.5 19 Norte 36 Noroeste 0 -- -- 68
2019-01-29 10:00:00 11.2 13 Norte 30 Norte 0 -- -- 70
2019-01-29 09:00:00 10.9 17 Norte 33 Noroeste 0 -- -- 70
2019-01-29 08:00:00 10.8 17 Norte 34 Noroeste 0 -- -- 68
2019-01-29 07:00:00 11 13 Noroeste 32 Noroeste 0 -- -- 67
2019-01-29 06:00:00 11 17 Norte 35 Norte 0 -- -- 73
2019-01-29 05:00:00 11.1 26 Norte 39 Noroeste 0 -- -- 73
2019-01-29 04:00:00 11.3 18 Norte 35 Norte 0 -- -- 72
2019-01-29 03:00:00 11.5 19 Norte 36 Norte 0 -- -- 74
2019-01-29 02:00:00 11.5 28 Norte 41 Norte 0 -- -- 73
2019-01-29 01:00:00 11.8 28 Norte 42 Noroeste 0 -- -- 74
2019-01-29 00:00:00 11.8 33 Norte 48 Norte 0 -- -- 72
2019-01-28 23:00:00 12.3 32 Norte 54 Noroeste 0 -- -- 71
2019-01-28 22:00:00 12.7 38 Norte 60 Noroeste 0 -- -- 65
2019-01-28 21:00:00 13.1 43 Norte 57 Norte 0 -- -- 63
2019-01-28 20:00:00 13.3 35 Norte 55 Noroeste 0 -- -- 69
2019-01-28 19:00:00 13.4 32 Norte 56 Noroeste 0 -- -- 68
2019-01-28 18:00:00 13.6 37 Norte 61 Norte 0 -- -- 66
2019-01-28 17:00:00 13.8 25 Noroeste 52 Oeste 0 -- -- 65
2019-01-28 16:00:00 13.7 26 Noroeste 56 Noroeste 0 -- -- 68
2019-01-28 15:00:00 13.6 24 Noroeste 49 Oeste 0 -- -- 64
2019-01-28 14:00:00 12.7 18 Oeste 50 Oeste 0 -- -- 69
2019-01-28 13:00:00 12.7 20 Oeste 51 Oeste 0 -- -- 69
2019-01-28 12:00:00 12.9 15 Oeste 36 Oeste 0 -- -- 64
2019-01-28 11:00:00 12.7 15 Oeste 31 Noroeste 0 -- -- 58
2019-01-28 10:00:00 11.9 16 Oeste 51 Noroeste 0 -- -- 62
2019-01-28 09:00:00 11.3 27 Noroeste 45 Noroeste 0 -- -- 67
2019-01-28 08:00:00 11.2 23 Norte 48 Norte 0 -- -- 66
2019-01-28 07:00:00 10.8 21 Noroeste 36 Norte 0 -- -- 65
2019-01-28 06:00:00 10.6 21 Norte 41 Norte 0 -- -- 68
2019-01-28 05:00:00 10.7 31 Norte 46 Noroeste 0 -- -- 68
2019-01-28 04:00:00 10.8 29 Norte 47 Noroeste 0 -- -- 68
2019-01-28 03:00:00 10.9 26 Norte 49 Norte 0 -- -- 69
2019-01-28 02:00:00 11.1 33 Norte 49 Norte 0 -- -- 66
2019-01-28 01:00:00 11.4 33 Norte 52 Noroeste 0 -- -- 61
2019-01-28 00:00:00 11.7 30 Norte 56 Noroeste 0 -- -- 59
2019-01-27 23:00:00 12 33 Norte 58 Noroeste 0 -- -- 60
2019-01-27 22:00:00 12.2 42 Norte 60 Noroeste 0 -- -- 60
2019-01-27 21:00:00 12.4 32 Norte 67 Noroeste 0 -- -- 58
2019-01-27 20:00:00 12.9 33 Noroeste 72 Norte 0 -- -- 57
2019-01-27 19:00:00 13.5 30 Noroeste 70 Oeste 0 -- -- 56
2019-01-27 18:00:00 13.5 29 Noroeste 54 Oeste 0 -- -- 59
2019-01-27 17:00:00 14.2 22 Noroeste 47 Noroeste 0 -- -- 58
2019-01-27 16:00:00 14.2 30 Noroeste 54 Noroeste 0 -- -- 57
2019-01-27 15:00:00 14.5 19 Noroeste 39 Oeste 0 -- -- 59
2019-01-27 14:00:00 14.3 16 Norte 30 Noroeste 0 -- -- 65
2019-01-27 13:00:00 14.8 8 Norte 22 Norte 0 -- -- 66
2019-01-27 12:00:00 15.7 4 Este 17 Sudoeste 0 -- -- 60
2019-01-27 11:00:00 13.3 9 Sur 13 Sur 0 -- -- 73
2019-01-27 10:00:00 12.1 6 Sur 23 Oeste 0 -- -- 78
2019-01-27 09:00:00 13.5 14 Oeste 25 Oeste 0 -- -- 77
2019-01-27 08:00:00 13.4 11 Sudoeste 28 Sudoeste 0 -- -- 64
2019-01-27 07:00:00 13.7 18 Sudoeste 31 Sur 0 -- -- 62
2019-01-27 06:00:00 14.1 18 Sudoeste 35 Sur 0 -- -- 54
2019-01-27 05:00:00 14.9 14 Sudoeste 23 Sudoeste 0 -- -- 48
2019-01-27 04:00:00 14.7 7 Sudoeste 21 Sudoeste 0 -- -- 54
2019-01-27 03:00:00 13.6 9 Sudoeste 22 Sudoeste 0 -- -- 66
2019-01-27 02:00:00 14.4 9 Sudoeste 27 Sudoeste 0 -- -- 64
2019-01-27 01:00:00 14.4 8 Sudoeste 25 Sur 0 -- -- 61
2019-01-27 00:00:00 14.4 11 Sudoeste 27 Sudoeste 0 -- -- 62
2019-01-26 23:00:00 14.3 13 Sudoeste 34 Sur 0 -- -- 59
2019-01-26 22:00:00 14.5 15 Sudoeste 39 Sur 0 -- -- 59
2019-01-26 21:00:00 14.5 15 Sudoeste 40 Sudoeste 0 -- -- 56
2019-01-26 20:00:00 14.8 14 Sudoeste 33 Oeste 0 -- -- 54
2019-01-26 19:00:00 14.1 5 Oeste 17 Oeste 0 -- -- 61
2019-01-26 18:00:00 12.6 7 Sudoeste 20 Oeste 0 -- -- 75
2019-01-26 17:00:00 14.4 4 Sur 16 Oeste 0 -- -- 73
2019-01-26 16:00:00 14.4 10 Oeste 20 Oeste 0 -- -- 75
2019-01-26 15:00:00 14.7 7 Oeste 15 Oeste 0 -- -- 71
2019-01-26 14:00:00 14 9 Oeste 16 Oeste 0 -- -- 78
2019-01-26 13:00:00 14.5 7 Oeste 13 Oeste 0 -- -- 77
2019-01-26 12:00:00 13.5 6 Oeste 17 Sudoeste 0 -- -- 81
2019-01-26 11:00:00 11.9 8 Sudoeste 14 Sudoeste 0 -- -- 87
2019-01-26 10:00:00 10.5 10 Sur 14 Sur 0 -- -- 96
2019-01-26 09:00:00 9.6 10 Sur 12 Sur 0 -- -- 96
2019-01-26 08:00:00 9.9 8 Sur 12 Sur 0 -- -- 95
2019-01-26 07:00:00 10.1 5 Sur 10 Sur 0 -- -- 92
2019-01-26 06:00:00 11.6 3 Sudoeste 12 Norte 0 -- -- 91
2019-01-26 05:00:00 11.2 6 Sudoeste 10 Sudoeste 0 -- -- 95
2019-01-26 04:00:00 11.3 7 Sur 12 Norte 0 -- -- 91
2019-01-26 03:00:00 12.2 5 Oeste 16 Norte 0 -- -- 92
2019-01-26 02:00:00 12.6 6 Noroeste 14 Noroeste 0 -- -- 91
2019-01-26 01:00:00 12.4 4 Sur 23 Noroeste 0 -- -- 86
2019-01-26 00:00:00 13.4 11 Norte 21 Noroeste 0 -- -- 81
2019-01-25 23:00:00 13.4 17 Noroeste 33 Oeste 0 -- -- 77
2019-01-25 22:00:00 13.3 15 Sudoeste 32 Sudoeste 0 -- -- 74
2019-01-25 21:00:00 13.1 14 Sudoeste 36 Sudoeste 0 -- -- 68
2019-01-25 20:00:00 13.4 21 Sudoeste 35 Sur 0 -- -- 61
2019-01-25 19:00:00 12.9 20 Sudoeste 32 Sudoeste 0 -- -- 62
2019-01-25 18:00:00 12.3 12 Sudoeste 31 Sudoeste 0 -- -- 69
2019-01-25 17:00:00 14.1 8 Sudoeste 35 Sur 0 -- -- 59
2019-01-25 16:00:00 15.4 4 Sudoeste 17 Sudoeste 0 -- -- 53
2019-01-25 15:00:00 14.5 6 Sur 12 Sur 0 -- -- 45
2019-01-25 14:00:00 13.5 3 Oeste 6 Sudoeste 0 -- -- 46
2019-01-25 13:00:00 13.1 4 Sudoeste 7 Sur 0 -- -- 53
2019-01-25 12:00:00 12.3 3 Sur 11 Sur 0 -- -- 56
2019-01-25 11:00:00 10.2 9 Sudoeste 15 Sur 0 -- -- 59
2019-01-25 10:00:00 7.8 11 Sur 15 Sur 0 -- -- 66
2019-01-25 09:00:00 6.5 10 Sur 15 Sudoeste 0 -- -- 69
2019-01-25 08:00:00 6.2 11 Sur 17 Sur 0 -- -- 68
2019-01-25 07:00:00 7.8 6 Sur 13 Sur 0 -- -- 61
2019-01-25 06:00:00 8.3 4 Sur 28 Norte 0 -- -- 55
2019-01-25 05:00:00 10.4 16 Norte 27 Norte 0 -- -- 52
2019-01-25 04:00:00 10.3 17 Norte 28 Norte 0 -- -- 46
2019-01-25 03:00:00 10.1 16 Norte 33 Norte 0 -- -- 50
2019-01-25 02:00:00 10.1 17 Noroeste 26 Norte 0 -- -- 54
2019-01-25 01:00:00 9.3 5 Sudeste 25 Norte 0 -- -- 53
2019-01-25 00:00:00 11 18 Norte 37 Norte 0 -- -- 52
2019-01-24 23:00:00 11.2 23 Norte 32 Norte 0 -- -- 54
2019-01-24 22:00:00 11.3 23 Norte 37 Norte 0 -- -- 50
2019-01-24 21:00:00 11.4 25 Norte 40 Norte 0 -- -- 53
2019-01-24 20:00:00 11.4 30 Norte 44 Noroeste 0 -- -- 50
2019-01-24 19:00:00 11.3 35 Norte 53 Norte 0 -- -- 47
2019-01-24 18:00:00 11.1 39 Norte 54 Noroeste 0 -- -- 50
2019-01-24 17:00:00 11.5 37 Norte 55 Norte 0 -- -- 46
2019-01-24 16:00:00 11.5 33 Norte 55 Norte 0 -- -- 55
2019-01-24 15:00:00 11 37 Norte 56 Norte 0 -- -- 54
2019-01-24 14:00:00 10.1 40 Norte 57 Noroeste 0 -- -- 56
2019-01-24 13:00:00 9.9 39 Norte 57 Noroeste 0 -- -- 57
2019-01-24 12:00:00 9.8 41 Norte 58 Noroeste 0 -- -- 57
2019-01-24 11:00:00 9.9 40 Norte 59 Norte 0 -- -- 50
2019-01-24 10:00:00 9.9 41 Norte 65 Noroeste 0 -- -- 46
2019-01-24 09:00:00 9.8 40 Norte 68 Noroeste 0 -- -- 53
2019-01-24 08:00:00 9.4 51 Norte 77 Norte 0 -- -- 53
2019-01-24 07:00:00 9.5 54 Norte 77 Noroeste 0 -- -- 51
2019-01-24 06:00:00 9.6 51 Norte 72 Noroeste 0 -- -- 60
2019-01-24 05:00:00 9.9 46 Norte 68 Noroeste 0 -- -- 62
2019-01-24 04:00:00 9.8 34 Norte 70 Norte 0.2 -- -- 67
2019-01-24 03:00:00 9.8 36 Norte 59 Norte 0.2 -- -- 73
2019-01-24 02:00:00 9.6 37 Norte 66 Norte 0.4 -- -- 77
2019-01-24 01:00:00 11.4 38 Norte 58 Norte 0 -- -- 71
2019-01-24 00:00:00 11.4 33 Norte 55 Norte 0 -- -- 71